WZZ2DM LHBP-LRTM

Flight info

Callsign WZZ2DM
Flight time 0h 45m
Altitude 37000
Route GAZDA DCT MAVIR DCT TIXIP DCT IBINU
Aircraft A21N/M-SDE1E2E3FGIJ1J4RWXY/LB1

Departure

Time 2026-05-06 15:38
Airport Budapest Liszt Ferenc International Airport (LHBP)

Arrival

Time 2026-05-06 16:23
Airport Târgu Mureş Transilvania International Airport (LRTM)
Time Latitude Longitude Altitude Speed Heading
2026-05-06 15:20 47.43452 19.26575 463 ft 0 kts 222°
2026-05-06 15:30 47.43461 19.26588 463 ft 3 kts 223°
2026-05-06 15:30 47.43474 19.26606 463 ft 3 kts 239°
2026-05-06 15:31 47.43479 19.26631 463 ft 4 kts 281°
2026-05-06 15:31 47.43472 19.26658 463 ft 4 kts 303°
2026-05-06 15:31 47.43459 19.26683 463 ft 4 kts 311°
2026-05-06 15:32 47.43447 19.26702 462 ft 4 kts 312°
2026-05-06 15:34 47.43452 19.26695 463 ft 2 kts 312°
2026-05-06 15:35 47.43466 19.26671 462 ft 4 kts 312°
2026-05-06 15:35 47.43492 19.26629 461 ft 7 kts 313°
2026-05-06 15:35 47.43530 19.26569 462 ft 9 kts 313°
2026-05-06 15:35 47.43580 19.26490 463 ft 12 kts 313°
2026-05-06 15:36 47.43640 19.26393 463 ft 13 kts 312°
2026-05-06 15:36 47.43713 19.26362 463 ft 14 kts 41°
2026-05-06 15:36 47.43782 19.26422 463 ft 11 kts 339°
2026-05-06 15:36 47.43839 19.26334 463 ft 13 kts 311°
2026-05-06 15:37 47.43906 19.26227 460 ft 14 kts 318°
2026-05-06 15:37 47.43983 19.26241 464 ft 14 kts 41°
2026-05-06 15:37 47.44056 19.26359 469 ft 18 kts 62°
2026-05-06 15:37 47.44065 19.26510 474 ft 14 kts 111°
2026-05-06 15:38 47.43972 19.26679 474 ft 46 kts 133°
2026-05-06 15:38 47.43575 19.27320 478 ft 121 kts 133°
2026-05-06 15:38 47.42877 19.28445 624 ft 158 kts 134°
2026-05-06 15:38 47.42128 19.29641 1261 ft 161 kts 136°
2026-05-06 15:39 47.41531 19.31076 1830 ft 176 kts 113°
2026-05-06 15:39 47.40983 19.32789 2409 ft 188 kts 123°
2026-05-06 15:39 47.40306 19.34531 3111 ft 203 kts 124°
2026-05-06 15:39 47.39579 19.36430 3729 ft 224 kts 123°
2026-05-06 15:40 47.38781 19.38521 4446 ft 241 kts 123°
2026-05-06 15:40 47.37787 19.40581 5183 ft 253 kts 142°
2026-05-06 15:40 47.36232 19.41825 5918 ft 259 kts 169°
2026-05-06 15:40 47.34421 19.42175 6774 ft 268 kts 171°
2026-05-06 15:41 47.32636 19.43071 7749 ft 273 kts 162°
2026-05-06 15:41 47.30839 19.44015 8718 ft 276 kts 164°
2026-05-06 15:41 47.29025 19.44900 9640 ft 280 kts 165°
2026-05-06 15:41 47.27130 19.45856 10440 ft 293 kts 158°
2026-05-06 15:42 47.25461 19.47668 10967 ft 315 kts 134°
2026-05-06 15:42 47.24186 19.50389 11590 ft 331 kts 124°
2026-05-06 15:42 47.23006 19.53330 12398 ft 336 kts 123°
2026-05-06 15:42 47.21801 19.56298 13246 ft 340 kts 124°
2026-05-06 15:43 47.20563 19.59285 14071 ft 344 kts 124°
2026-05-06 15:43 47.19302 19.62297 14872 ft 348 kts 124°
2026-05-06 15:43 47.18021 19.65334 15664 ft 352 kts 124°
2026-05-06 15:43 47.16712 19.68416 16435 ft 357 kts 124°
2026-05-06 15:44 47.15388 19.71528 17192 ft 361 kts 124°
2026-05-06 15:44 47.14050 19.74670 17918 ft 365 kts 124°
2026-05-06 15:44 47.12693 19.77845 18634 ft 369 kts 124°
2026-05-06 15:44 47.11315 19.81058 19324 ft 373 kts 124°
2026-05-06 15:45 47.09928 19.84308 20005 ft 378 kts 124°
2026-05-06 15:45 47.08531 19.87584 20666 ft 381 kts 124°
2026-05-06 15:45 47.07116 19.90901 21316 ft 385 kts 124°
2026-05-06 15:45 47.05685 19.94239 21943 ft 389 kts 124°
2026-05-06 15:46 47.04239 19.97608 22539 ft 392 kts 124°
2026-05-06 15:46 47.02780 20.01004 23135 ft 396 kts 124°
2026-05-06 15:46 47.01298 20.04427 23721 ft 399 kts 124°
2026-05-06 15:46 46.99803 20.07865 24268 ft 402 kts 124°
2026-05-06 15:47 46.98297 20.11330 24795 ft 406 kts 124°
2026-05-06 15:47 46.96767 20.14847 25269 ft 410 kts 124°
2026-05-06 15:47 46.95230 20.18396 25748 ft 415 kts 124°
2026-05-06 15:47 46.93678 20.21987 26201 ft 419 kts 124°
2026-05-06 15:48 46.92115 20.25606 26638 ft 423 kts 124°
2026-05-06 15:48 46.90531 20.29263 27068 ft 427 kts 124°
2026-05-06 15:48 46.88952 20.32893 27463 ft 431 kts 124°
2026-05-06 15:48 46.87331 20.36599 27873 ft 435 kts 124°
2026-05-06 15:49 46.85698 20.40335 28284 ft 438 kts 124°
2026-05-06 15:49 46.84026 20.44150 28653 ft 442 kts 124°
2026-05-06 15:49 46.82390 20.47892 29015 ft 445 kts 124°
2026-05-06 15:49 46.80717 20.51722 29371 ft 449 kts 124°
2026-05-06 15:50 46.79040 20.55578 29713 ft 452 kts 124°
2026-05-06 15:50 46.77327 20.59508 30093 ft 454 kts 124°
2026-05-06 15:50 46.75648 20.63321 30569 ft 453 kts 125°
2026-05-06 15:50 46.73948 20.67188 31010 ft 452 kts 125°
2026-05-06 15:51 46.72224 20.71091 31450 ft 452 kts 125°
2026-05-06 15:51 46.70521 20.74937 31821 ft 452 kts 125°
2026-05-06 15:51 46.68834 20.78735 32125 ft 454 kts 125°
2026-05-06 15:51 46.67122 20.82584 32376 ft 454 kts 125°
2026-05-06 15:52 46.65404 20.86433 32633 ft 453 kts 125°
2026-05-06 15:52 46.63681 20.90293 32870 ft 453 kts 125°
2026-05-06 15:52 46.60251 20.97976 32949 ft 453 kts 125°
2026-05-06 15:53 46.56814 21.05664 32926 ft 453 kts 125°
2026-05-06 15:53 46.53396 21.13363 32927 ft 453 kts 124°
2026-05-06 15:54 46.50522 21.19804 32931 ft 454 kts 124°
2026-05-06 15:54 46.47082 21.27464 32930 ft 453 kts 124°
2026-05-06 15:55 46.43638 21.35112 32929 ft 453 kts 124°
2026-05-06 15:55 46.40179 21.42768 32930 ft 452 kts 124°
2026-05-06 15:56 46.36735 21.50336 32930 ft 451 kts 124°
2026-05-06 15:56 46.33284 21.57937 32930 ft 452 kts 124°
2026-05-06 15:57 46.29841 21.65489 32932 ft 454 kts 124°
2026-05-06 15:57 46.26363 21.73090 32928 ft 453 kts 124°
2026-05-06 15:58 46.22898 21.80639 32923 ft 448 kts 124°
2026-05-06 15:58 46.19422 21.88190 32932 ft 453 kts 124°
2026-05-06 15:59 46.15951 21.95731 32937 ft 455 kts 124°
2026-05-06 15:59 46.12448 22.03309 32878 ft 449 kts 124°
2026-05-06 16:00 46.10728 22.07002 32444 ft 442 kts 124°
2026-05-06 16:00 46.09028 22.10673 31905 ft 438 kts 124°
2026-05-06 16:00 46.07347 22.14301 31388 ft 433 kts 124°
2026-05-06 16:00 46.05681 22.17891 30870 ft 428 kts 124°
2026-05-06 16:01 46.04036 22.21431 30358 ft 424 kts 125°
2026-05-06 16:01 46.02397 22.24941 29831 ft 419 kts 125°
2026-05-06 16:01 46.00780 22.28395 29341 ft 415 kts 125°
2026-05-06 16:01 45.99174 22.31834 28843 ft 411 kts 125°
2026-05-06 16:02 45.97592 22.35221 28328 ft 407 kts 125°
2026-05-06 16:02 45.96021 22.38580 27821 ft 403 kts 125°
2026-05-06 16:02 45.94464 22.41905 27324 ft 399 kts 125°
2026-05-06 16:02 45.92922 22.45186 26829 ft 394 kts 125°
2026-05-06 16:03 45.91398 22.48434 26336 ft 390 kts 125°
2026-05-06 16:03 45.89885 22.51648 25841 ft 386 kts 125°
2026-05-06 16:03 45.88385 22.54821 25343 ft 382 kts 125°
2026-05-06 16:03 45.86904 22.57956 24866 ft 378 kts 125°
2026-05-06 16:04 45.85453 22.61083 24367 ft 375 kts 121°
2026-05-06 16:04 45.84423 22.64485 23853 ft 372 kts 104°
2026-05-06 16:04 45.84156 22.68140 23349 ft 367 kts 86°
2026-05-06 16:04 45.84349 22.71771 22869 ft 364 kts 85°
2026-05-06 16:05 45.84603 22.75359 22366 ft 361 kts 83°
2026-05-06 16:05 45.84948 22.78911 21873 ft 358 kts 81°
2026-05-06 16:05 45.85404 22.82399 21388 ft 354 kts 78°
2026-05-06 16:05 45.85889 22.85848 20907 ft 351 kts 78°
2026-05-06 16:06 45.86358 22.89260 20430 ft 347 kts 78°
2026-05-06 16:06 45.86918 22.92616 19943 ft 345 kts 75°
2026-05-06 16:06 45.87527 22.95931 19456 ft 342 kts 76°
2026-05-06 16:06 45.88064 22.99231 18964 ft 339 kts 78°
2026-05-06 16:07 45.88543 23.02544 18473 ft 337 kts 79°
2026-05-06 16:07 45.88987 23.05825 17960 ft 334 kts 80°
2026-05-06 16:07 45.89413 23.09090 17465 ft 331 kts 80°
2026-05-06 16:07 45.89826 23.12322 16954 ft 328 kts 80°
2026-05-06 16:08 45.90231 23.15519 16444 ft 325 kts 80°
2026-05-06 16:08 45.90630 23.18702 15945 ft 322 kts 81°
2026-05-06 16:08 45.91025 23.21853 15447 ft 319 kts 80°
2026-05-06 16:08 45.91416 23.24971 14963 ft 316 kts 79°
2026-05-06 16:09 45.92051 23.27978 14447 ft 314 kts 64°
2026-05-06 16:09 45.93279 23.30556 13932 ft 313 kts 50°
2026-05-06 16:09 45.94692 23.32898 13440 ft 310 kts 49°
2026-05-06 16:09 45.96113 23.35216 12960 ft 307 kts 49°
2026-05-06 16:10 45.97513 23.37520 12478 ft 305 kts 49°
2026-05-06 16:10 45.98897 23.39811 11990 ft 302 kts 49°
2026-05-06 16:10 46.00263 23.42085 11503 ft 299 kts 50°
2026-05-06 16:10 46.01616 23.44343 11000 ft 298 kts 50°
2026-05-06 16:11 46.02969 23.46604 10499 ft 297 kts 50°
2026-05-06 16:11 46.04311 23.48850 10014 ft 295 kts 50°
2026-05-06 16:11 46.05645 23.51086 9519 ft 293 kts 50°
2026-05-06 16:11 46.06968 23.53304 9038 ft 291 kts 50°
2026-05-06 16:12 46.08267 23.55486 8542 ft 290 kts 50°
2026-05-06 16:12 46.09588 23.57705 8064 ft 288 kts 50°
2026-05-06 16:12 46.10872 23.59864 7598 ft 286 kts 50°
2026-05-06 16:12 46.12163 23.62035 7129 ft 284 kts 50°
2026-05-06 16:13 46.13444 23.64194 6726 ft 283 kts 50°
2026-05-06 16:13 46.14722 23.66348 6438 ft 282 kts 50°
2026-05-06 16:13 46.15995 23.68497 6243 ft 281 kts 50°
2026-05-06 16:13 46.17262 23.70636 6092 ft 280 kts 50°
2026-05-06 16:14 46.18526 23.72770 5947 ft 280 kts 50°
2026-05-06 16:14 46.19747 23.74947 5832 ft 279 kts 53°
2026-05-06 16:14 46.20969 23.77121 5701 ft 278 kts 51°
2026-05-06 16:14 46.22184 23.79296 5577 ft 279 kts 49°
2026-05-06 16:15 46.23478 23.81383 5450 ft 279 kts 48°
2026-05-06 16:15 46.24766 23.83465 5320 ft 278 kts 49°
2026-05-06 16:15 46.26028 23.85581 5198 ft 277 kts 50°
2026-05-06 16:15 46.27276 23.87705 5108 ft 277 kts 50°
2026-05-06 16:16 46.28523 23.89826 5023 ft 277 kts 50°
2026-05-06 16:16 46.29772 23.91943 4939 ft 277 kts 50°
2026-05-06 16:16 46.31023 23.94064 4837 ft 274 kts 50°
2026-05-06 16:16 46.32232 23.96110 4716 ft 260 kts 50°
2026-05-06 16:17 46.33377 23.98049 4577 ft 247 kts 50°
2026-05-06 16:17 46.34468 23.99894 4434 ft 235 kts 50°
2026-05-06 16:17 46.35513 24.01656 4296 ft 229 kts 50°
2026-05-06 16:17 46.36555 24.03404 4163 ft 229 kts 50°
2026-05-06 16:18 46.37587 24.05139 4053 ft 228 kts 50°
2026-05-06 16:18 46.38629 24.06881 4045 ft 229 kts 50°
2026-05-06 16:18 46.39671 24.08619 4053 ft 229 kts 50°
2026-05-06 16:18 46.40570 24.10502 4055 ft 227 kts 65°
2026-05-06 16:19 46.41141 24.12617 4032 ft 221 kts 75°
2026-05-06 16:19 46.41513 24.14693 3913 ft 206 kts 75°
2026-05-06 16:19 46.41897 24.16656 3786 ft 204 kts 76°
2026-05-06 16:19 46.42288 24.18627 3657 ft 197 kts 76°
2026-05-06 16:20 46.42666 24.20531 3611 ft 196 kts 76°
2026-05-06 16:20 46.43037 24.22403 3436 ft 189 kts 76°
2026-05-06 16:20 46.43393 24.24197 3195 ft 181 kts 76°
2026-05-06 16:20 46.43730 24.25898 2945 ft 168 kts 76°
2026-05-06 16:21 46.44036 24.27446 2753 ft 150 kts 76°
2026-05-06 16:21 46.44317 24.28865 2564 ft 145 kts 76°
2026-05-06 16:21 46.44595 24.30276 2369 ft 145 kts 76°
2026-05-06 16:21 46.44868 24.31684 2158 ft 145 kts 74°
2026-05-06 16:22 46.45158 24.33083 1990 ft 145 kts 73°
2026-05-06 16:22 46.45433 24.34486 1798 ft 145 kts 74°
2026-05-06 16:22 46.45717 24.35880 1603 ft 144 kts 73°
2026-05-06 16:22 46.45996 24.37266 1406 ft 143 kts 74°
2026-05-06 16:23 46.46264 24.38645 1226 ft 142 kts 75°
2026-05-06 16:23 46.46535 24.40020 1031 ft 141 kts 74°
2026-05-06 16:23 46.46777 24.41272 979 ft 98 kts 74°
2026-05-06 16:23 46.46910 24.41930 986 ft 42 kts 75°
2026-05-06 16:24 46.46952 24.42156 979 ft 8 kts 75°
2026-05-06 16:24 46.46947 24.42226 981 ft 6 kts 137°
2026-05-06 16:24 46.46900 24.42256 978 ft 8 kts 165°
2026-05-06 16:24 46.46860 24.42272 978 ft 3 kts 165°
2026-05-06 16:25 46.46852 24.42275 987 ft 2 kts 159°
2026-05-06 16:25 46.46838 24.42301 982 ft 5 kts 98°
2026-05-06 16:25 46.46845 24.42349 978 ft 6 kts 79°
2026-05-06 16:25 46.46833 24.42380 982 ft 4 kts 150°
2026-05-06 16:26 46.46806 24.42388 978 ft 0 kts 197°
2026-05-06 16:26 46.46800 24.42376 978 ft 2 kts 247°
2026-05-06 16:26 46.46800 24.42368 985 ft 0 kts 271°